Salina, KS

11:13 AM CDT on September 19, 2017 (GMT -0500)
Salina Municipal

Weather History for KSLN - December, 2012

Change the Weather History Date:

Sunday, December 16, 2012

  Actual Average Record
Temperature  
Mean Temperature 34 °F 32 °F  
Max Temperature 44 °F 42 °F 70 °F (1962)
Min Temperature 24 °F 22 °F -16 °F (1989)
Degree Days  
Heating Degree Days 31 33  
Month to date heating degree days 382 501  
Since 1 July heating degree days 1217 1453  
Cooling Degree Days 0 0  
Month to date cooling degree days 0 0  
Year to date cooling degree days 2051 1647  
Moisture  
Dew Point 29 °F    
Average Humidity 77    
Maximum Humidity 100    
Minimum Humidity 53    
Precipitation  
Precipitation T in 0.03 in 0.34 in (1967)
Month to date precipitation 0.06 0.55  
Year to date precipitation 17.96 31.11  
Sea Level Pressure  
Sea Level Pressure 29.77 in    
Wind  
Wind Speed 5 mph (NNW)    
Max Wind Speed 17 mph    
Max Gust Speed 21 mph    
Visibility 3 miles    
Events Fog , Rain    
T = Trace of Precipitation, MM = Missing Value Source: NWS Daily Summary

Daily Weather History Graph

Daily Weather History Graph

Search for Another Location

Airport or City:

Trip Planner

Search our weather history database for the weather conditions in past years. The results will help you decide how hot, cold, wet, or windy it might be!

Date:

Astronomy

Dec. 16, 2012 Rise Set
Actual Time 7:42 AM CST 5:10 PM CST
Civil Twilight 7:12 AM CST 5:40 PM CST
Nautical Twilight 6:39 AM CST 6:13 PM CST
Astronomical Twilight 6:06 AM CST 6:46 PM CST
Moon 10:18 AM CST (12/16) 9:24 PM CST (12/16)
Length of Visible Light 10h 27m
Length of Day
9h 27m
Waxing Crescent, 16% of the Moon is Illuminated
Dec 16
Waxing Crescent
Dec 19
First Quarter
Dec 28
Full
Jan 4
Last Quarter
Jan 11
New

Hourly Weather History & Observations

Time (CST) Temp. Windchill Dew Point Humidity Pressure Visibility Wind Dir Wind Speed Gust Speed Precip Events Conditions
12:02 AM 35.6 °F - 33.8 °F 93% 29.74 in 2.0 mi Calm Calm - N/A   Clear
12:13 AM 33.8 °F - 32.0 °F 93% 29.74 in 1.2 mi Calm Calm - N/A   Clear
12:19 AM 33.8 °F - 30.2 °F 87% 29.74 in 3.0 mi Calm Calm - N/A   Clear
12:26 AM 32.0 °F - 30.2 °F 93% 29.74 in 1.8 mi Calm Calm - N/A   Clear
12:43 AM 32.0 °F - 30.2 °F 93% 29.75 in 3.0 mi Calm Calm - N/A   Clear
12:46 AM 32.0 °F - 30.2 °F 93% 29.74 in 1.8 mi Calm Calm - N/A   Clear
12:53 AM 32.0 °F 27.5 °F 30.0 °F 92% 29.75 in 0.8 mi NNW 4.6 mph - N/A   Clear
1:04 AM 32.0 °F 26.4 °F 30.2 °F 93% 29.74 in 0.2 mi NNW 5.8 mph - N/A Fog Fog
1:20 AM 30.2 °F - 30.2 °F 100% 29.74 in 0.5 mi Calm Calm - N/A Fog Light Freezing Fog
1:35 AM 32.0 °F - 30.2 °F 93% 29.74 in 0.2 mi Calm Calm - N/A Fog Fog
1:53 AM 30.9 °F - 30.0 °F 96% 29.75 in 0.8 mi Calm Calm - N/A   Mist
2:01 AM 30.2 °F - 28.4 °F 93% 29.74 in 1.0 mi Calm Calm - N/A   Mist
2:10 AM 30.2 °F - 28.4 °F 93% 29.75 in 0.8 mi Calm Calm - N/A   Mist
2:15 AM 30.2 °F - 28.4 °F 93% 29.75 in 1.2 mi Calm Calm - N/A   Mostly Cloudy
2:19 AM 30.2 °F - 28.4 °F 93% 29.75 in 3.0 mi Calm Calm - N/A   Scattered Clouds
2:25 AM 30.2 °F - 28.4 °F 93% 29.76 in 1.5 mi Calm Calm - N/A   Scattered Clouds
2:28 AM 32.0 °F - 28.4 °F 87% 29.76 in 0.8 mi Calm Calm - N/A   Mist
2:45 AM 32.0 °F - 30.2 °F 93% 29.75 in 1.2 mi Calm Calm - N/A   Partly Cloudy
2:53 AM 32.0 °F 28.7 °F 30.0 °F 92% 29.76 in 2.5 mi NNW 3.5 mph - N/A   Scattered Clouds
3:01 AM 32.0 °F 26.4 °F 30.2 °F 93% 29.76 in 3.0 mi NW 5.8 mph - N/A   Scattered Clouds
3:11 AM 32.0 °F 24.8 °F 30.2 °F 93% 29.76 in 2.0 mi NW 8.1 mph - N/A   Partly Cloudy
3:36 AM 30.2 °F 25.4 °F 30.2 °F 100% 29.75 in 3.0 mi NNW 4.6 mph - N/A   Clear
3:53 AM 30.0 °F 26.5 °F 28.9 °F 96% 29.76 in 4.0 mi North 3.5 mph - N/A   Clear
4:53 AM 30.0 °F - 28.0 °F 92% 29.76 in 4.0 mi Calm Calm - N/A   Clear
4:57 AM 28.4 °F - 26.6 °F 93% 29.75 in 1.5 mi Calm Calm - N/A   Partly Cloudy
5:01 AM 28.4 °F - 26.6 °F 93% 29.75 in 0.8 mi Calm Calm - N/A   Mist
5:11 AM 28.4 °F 24.6 °F 26.6 °F 93% 29.75 in 0.2 mi NW 3.5 mph - N/A Fog Light Freezing Fog
5:33 AM 30.2 °F 25.4 °F 26.6 °F 86% 29.76 in 0.2 mi NNW 4.6 mph - N/A Fog , Rain Light Freezing Rain
5:53 AM 28.9 °F - 27.0 °F 92% 29.78 in 0.2 mi Calm Calm - 0.00 in Fog , Rain Light Freezing Rain
6:27 AM 28.4 °F - 26.6 °F 93% 29.77 in 0.2 mi Calm Calm - 0.00 in Fog Light Freezing Fog
6:53 AM 27.0 °F 23.0 °F 25.0 °F 92% 29.79 in 0.2 mi NW 3.5 mph - 0.00 in Fog Light Freezing Fog
7:13 AM 26.6 °F 22.6 °F 24.8 °F 93% 29.77 in 0.8 mi NW 3.5 mph - N/A   Mist
7:31 AM 24.8 °F - 23.0 °F 93% 29.77 in 4.0 mi Calm Calm - N/A Fog Patches of Fog
7:53 AM 26.1 °F 21.9 °F 24.1 °F 92% 29.80 in 3.0 mi NNW 3.5 mph - N/A Fog Patches of Fog
8:53 AM 28.9 °F 23.9 °F 27.0 °F 92% 29.80 in 4.0 mi NNW 4.6 mph - N/A   Clear
9:53 AM 32.0 °F 26.4 °F 28.9 °F 88% 29.81 in 5.0 mi NNW 5.8 mph - N/A   Clear
10:53 AM 34.0 °F 28.0 °F 30.0 °F 85% 29.81 in 8.0 mi North 6.9 mph - N/A   Clear
11:53 AM 37.9 °F 33.5 °F 28.9 °F 70% 29.78 in 9.0 mi NW 5.8 mph - N/A   Clear
12:53 PM 37.9 °F 30.9 °F 28.0 °F 68% 29.75 in 9.0 mi North 10.4 mph - N/A   Clear
1:53 PM 43.0 °F 38.2 °F 30.0 °F 60% 29.73 in 9.0 mi NNW 8.1 mph - N/A   Clear
2:53 PM 44.1 °F 36.5 °F 28.9 °F 55% 29.73 in 10.0 mi North 17.3 mph - N/A   Clear
3:53 PM 43.0 °F 36.8 °F 30.0 °F 60% 29.76 in 10.0 mi North 11.5 mph - N/A   Clear
4:53 PM 39.0 °F 32.3 °F 30.0 °F 70% 29.78 in 9.0 mi North 10.4 mph - N/A   Clear
5:53 PM 35.1 °F 30.1 °F 28.9 °F 78% 29.82 in 6.0 mi East 5.8 mph - N/A   Haze
6:53 PM 33.1 °F 28.7 °F 28.9 °F 85% 29.82 in 5.0 mi ENE 4.6 mph - N/A   Clear
7:53 PM 33.1 °F - 28.9 °F 85% 29.83 in 5.0 mi Calm Calm - N/A   Clear
8:53 PM 30.0 °F - 26.1 °F 85% 29.84 in 4.0 mi Calm Calm - N/A   Scattered Clouds
9:12 PM 30.2 °F - 26.6 °F 86% 29.81 in 5.0 mi Calm Calm - N/A   Overcast
9:53 PM 32.0 °F - 28.9 °F 88% 29.85 in 4.0 mi Calm Calm - N/A   Overcast
10:53 PM 33.1 °F 28.7 °F 28.9 °F 85% 29.85 in 4.0 mi West 4.6 mph - N/A   Overcast
11:53 PM 32.0 °F 27.5 °F 28.9 °F 88% 29.85 in 4.0 mi WSW 4.6 mph - N/A   Overcast